Time,TemperatureF,DewpointF,PressureIn,WindDirection,WindDirectionDegrees,WindSpeedMPH,WindSpeedGustMPH,Humidity,HourlyPrecipIn,Conditions,Clouds,dailyrainin,SoftwareType,DateUTC
2013-06-10 00:12:00,79.0,56.0,29.13,South,183,7.0,-999.0,44,0.00,,,0.00,,2013-06-10 07:12:00,
2013-06-10 00:22:00,79.0,56.0,29.13,South,183,7.0,-999.0,44,0.00,,,0.00,,2013-06-10 07:22:00,
2013-06-10 00:32:00,79.0,56.0,29.13,South,183,7.0,-999.0,44,0.00,,,0.00,,2013-06-10 07:32:00,
2013-06-10 00:42:00,79.0,56.0,29.13,South,183,7.0,-999.0,44,0.00,,,0.00,,2013-06-10 07:42:00,
2013-06-10 01:12:00,76.0,55.0,29.15,South,191,5.0,-999.0,48,0.00,,,0.00,,2013-06-10 08:12:00,
2013-06-10 01:22:00,76.0,55.0,29.15,South,191,5.0,-999.0,48,0.00,,,0.00,,2013-06-10 08:22:00,
2013-06-10 01:32:00,76.0,55.0,29.15,South,191,5.0,-999.0,48,0.00,,,0.00,,2013-06-10 08:32:00,
2013-06-10 01:42:00,76.0,55.0,29.15,South,191,5.0,-999.0,48,0.00,,,0.00,,2013-06-10 08:42:00,
2013-06-10 02:12:00,73.0,56.0,29.17,WNW,296,4.0,-999.0,56,0.00,,,0.00,,2013-06-10 09:12:00,
2013-06-10 02:22:00,73.0,56.0,29.17,WNW,296,4.0,-999.0,56,0.00,,,0.00,,2013-06-10 09:22:00,
2013-06-10 02:32:00,73.0,56.0,29.17,WNW,296,4.0,-999.0,56,0.00,,,0.00,,2013-06-10 09:32:00,
2013-06-10 02:42:00,73.0,56.0,29.17,WNW,296,4.0,-999.0,56,0.00,,,0.00,,2013-06-10 09:42:00,
2013-06-10 03:12:00,69.0,56.0,29.19,NNW,327,2.0,-999.0,62,-99.99,,,0.00,,2013-06-10 10:12:00,
2013-06-10 03:22:00,69.0,56.0,29.19,NNW,327,2.0,-999.0,62,-99.99,,,0.00,,2013-06-10 10:22:00,
2013-06-10 03:33:00,69.0,56.0,29.19,NNW,327,2.0,-999.0,62,-99.99,,,0.00,,2013-06-10 10:33:00,
2013-06-10 03:42:00,69.0,56.0,29.19,NNW,327,2.0,-999.0,62,-99.99,,,0.00,,2013-06-10 10:42:00,
2013-06-10 04:12:00,67.0,54.0,29.20,West,281,4.0,-999.0,63,0.00,,,0.00,,2013-06-10 11:12:00,
2013-06-10 04:22:00,67.0,54.0,29.20,West,281,4.0,-999.0,63,0.00,,,0.00,,2013-06-10 11:22:00,
2013-06-10 04:32:00,67.0,54.0,29.20,West,281,4.0,-999.0,63,0.00,,,0.00,,2013-06-10 11:32:00,
2013-06-10 04:42:00,67.0,54.0,29.20,West,281,4.0,-999.0,63,0.00,,,0.00,,2013-06-10 11:42:00,
2013-06-10 05:12:00,65.0,54.0,29.21,WNW,285,3.0,-999.0,67,0.00,,,0.00,,2013-06-10 12:12:00,
2013-06-10 05:22:00,65.0,54.0,29.21,WNW,285,3.0,-999.0,67,0.00,,,0.00,,2013-06-10 12:22:00,
2013-06-10 05:32:00,65.0,54.0,29.21,WNW,285,3.0,-999.0,67,0.00,,,0.00,,2013-06-10 12:32:00,
2013-06-10 05:42:00,65.0,54.0,29.21,WNW,285,3.0,-999.0,67,0.00,,,0.00,,2013-06-10 12:42:00,
2013-06-10 06:12:00,64.0,53.0,29.22,West,269,1.0,-999.0,69,0.00,,,0.00,,2013-06-10 13:12:00,
2013-06-10 06:22:00,64.0,53.0,29.22,West,269,1.0,-999.0,69,0.00,,,0.00,,2013-06-10 13:22:00,
2013-06-10 06:32:00,64.0,53.0,29.22,West,269,1.0,-999.0,69,0.00,,,0.00,,2013-06-10 13:32:00,
2013-06-10 06:42:00,64.0,53.0,29.22,West,269,1.0,-999.0,69,0.00,,,0.00,,2013-06-10 13:42:00,
2013-06-10 07:12:00,64.0,53.0,29.24,NW,325,1.0,-999.0,67,0.00,,,0.00,,2013-06-10 14:12:00,
2013-06-10 07:22:00,64.0,53.0,29.24,NW,325,1.0,-999.0,67,0.00,,,0.00,,2013-06-10 14:22:00,
2013-06-10 07:32:00,64.0,53.0,29.24,NW,325,1.0,-999.0,67,0.00,,,0.00,,2013-06-10 14:32:00,
2013-06-10 07:42:00,64.0,53.0,29.24,NW,325,1.0,-999.0,67,0.00,,,0.00,,2013-06-10 14:42:00,
2013-06-10 08:12:00,66.0,54.0,29.26,WNW,285,2.0,-999.0,65,0.00,,,0.00,,2013-06-10 15:12:00,
2013-06-10 08:22:00,66.0,54.0,29.26,WNW,285,2.0,-999.0,65,0.00,,,0.00,,2013-06-10 15:22:00,
2013-06-10 08:32:00,66.0,54.0,29.26,WNW,285,2.0,-999.0,65,0.00,,,0.00,,2013-06-10 15:32:00,
2013-06-10 08:43:00,66.0,54.0,29.26,WNW,285,2.0,-999.0,65,0.00,,,0.00,,2013-06-10 15:43:00,
2013-06-10 09:12:00,71.0,54.0,29.28,WSW,250,2.0,-999.0,55,-99.99,,,-99.99,,2013-06-10 16:12:00,
2013-06-10 09:23:00,71.0,54.0,29.28,WSW,250,2.0,-999.0,55,-99.99,,,-99.99,,2013-06-10 16:23:00,
2013-06-10 09:33:00,71.0,54.0,29.28,WSW,250,2.0,-999.0,55,-99.99,,,-99.99,,2013-06-10 16:33:00,
2013-06-10 09:42:00,71.0,54.0,29.28,WSW,250,2.0,-999.0,55,-99.99,,,-99.99,,2013-06-10 16:42:00,
2013-06-10 09:45:00,73.0,54.0,29.29,WNW,296,5.0,-999.0,51,0.01,,,0.00,,2013-06-10 16:45:00,
2013-06-10 10:14:00,73.0,54.0,29.29,WNW,296,5.0,-999.0,51,0.01,,,0.00,,2013-06-10 17:14:00,
2013-06-10 10:26:00,73.0,54.0,29.29,WNW,296,5.0,-999.0,51,0.01,,,0.00,,2013-06-10 17:26:00,
2013-06-10 10:38:00,73.0,54.0,29.29,WNW,296,5.0,-999.0,51,0.01,,,0.00,,2013-06-10 17:38:00,
2013-06-10 10:45:00,76.0,54.0,29.30,West,272,5.0,-999.0,48,0.00,,,-99.99,,2013-06-10 17:45:00,
2013-06-10 11:14:00,76.0,54.0,29.30,West,272,5.0,-999.0,48,0.00,,,-99.99,,2013-06-10 18:14:00,
2013-06-10 11:24:00,76.0,54.0,29.30,West,272,5.0,-999.0,48,0.00,,,-99.99,,2013-06-10 18:24:00,
2013-06-10 11:34:00,76.0,54.0,29.30,West,272,5.0,-999.0,48,0.00,,,-99.99,,2013-06-10 18:34:00,
2013-06-10 12:12:00,79.0,55.0,29.28,NW,307,6.0,-999.0,44,0.00,,,-99.99,,2013-06-10 19:12:00,
2013-06-10 12:22:00,79.0,55.0,29.28,NW,307,6.0,-999.0,44,0.00,,,-99.99,,2013-06-10 19:22:00,
2013-06-10 12:32:00,79.0,55.0,29.28,NW,307,6.0,-999.0,44,0.00,,,-99.99,,2013-06-10 19:32:00,
2013-06-10 12:42:00,79.0,55.0,29.28,NW,307,6.0,-999.0,44,0.00,,,-99.99,,2013-06-10 19:42:00,
2013-06-10 13:12:00,80.0,54.0,29.27,WNW,296,3.0,-999.0,41,0.00,,,-99.99,,2013-06-10 20:12:00,
2013-06-10 13:22:00,80.0,54.0,29.27,WNW,296,3.0,-999.0,41,0.00,,,-99.99,,2013-06-10 20:22:00,
2013-06-10 13:32:00,80.0,54.0,29.27,WNW,296,3.0,-999.0,41,0.00,,,-99.99,,2013-06-10 20:32:00,
2013-06-10 13:42:00,80.0,54.0,29.27,WNW,296,3.0,-999.0,41,0.00,,,-99.99,,2013-06-10 20:42:00,
2013-06-10 14:12:00,81.0,52.0,29.27,SW,217,4.0,-999.0,36,0.01,,,0.00,,2013-06-10 21:12:00,
2013-06-10 14:22:00,81.0,52.0,29.27,SW,217,4.0,-999.0,36,0.01,,,0.00,,2013-06-10 21:22:00,
2013-06-10 14:33:00,81.0,52.0,29.27,SW,217,4.0,-999.0,36,0.01,,,0.00,,2013-06-10 21:33:00,
2013-06-10 14:42:00,81.0,52.0,29.27,SW,217,4.0,-999.0,36,0.01,,,0.00,,2013-06-10 21:42:00,
2013-06-10 15:13:00,85.0,50.0,29.26,WNW,287,4.0,-999.0,30,0.00,,,0.00,,2013-06-10 22:13:00,
2013-06-10 15:22:00,85.0,50.0,29.26,WNW,287,4.0,-999.0,30,0.00,,,0.00,,2013-06-10 22:22:00,
2013-06-10 15:33:00,85.0,50.0,29.26,WNW,287,4.0,-999.0,30,0.00,,,0.00,,2013-06-10 22:33:00,
2013-06-10 15:42:00,85.0,50.0,29.26,WNW,287,4.0,-999.0,30,0.00,,,0.00,,2013-06-10 22:42:00,
2013-06-10 16:12:00,84.0,49.0,29.25,NW,320,13.0,-999.0,30,0.00,,,0.00,,2013-06-10 23:12:00,
2013-06-10 16:22:00,84.0,49.0,29.25,NW,320,13.0,-999.0,30,0.00,,,0.00,,2013-06-10 23:22:00,
2013-06-10 16:32:00,84.0,49.0,29.25,NW,320,13.0,-999.0,30,0.00,,,0.00,,2013-06-10 23:32:00,
2013-06-10 16:42:00,84.0,49.0,29.25,NW,320,13.0,-999.0,30,0.00,,,0.00,,2013-06-10 23:42:00,
2013-06-10 17:12:00,83.0,48.0,29.25,West,259,7.0,-999.0,29,0.00,,,-99.99,,2013-06-11 00:12:00,
2013-06-10 17:22:00,83.0,48.0,29.25,West,259,7.0,-999.0,29,0.00,,,-99.99,,2013-06-11 00:22:00,
2013-06-10 17:32:00,83.0,48.0,29.25,West,259,7.0,-999.0,29,0.00,,,-99.99,,2013-06-11 00:32:00,
2013-06-10 17:42:00,83.0,48.0,29.25,West,259,7.0,-999.0,29,0.00,,,-99.99,,2013-06-11 00:42:00,
2013-06-10 18:12:00,85.0,45.0,29.24,SSW,213,4.0,-999.0,25,0.00,,,-99.99,,2013-06-11 01:12:00,
2013-06-10 18:22:00,85.0,45.0,29.24,SSW,213,4.0,-999.0,25,0.00,,,-99.99,,2013-06-11 01:22:00,
2013-06-10 18:32:00,85.0,45.0,29.24,SSW,213,4.0,-999.0,25,0.00,,,-99.99,,2013-06-11 01:32:00,
2013-06-10 18:42:00,85.0,45.0,29.24,SSW,213,4.0,-999.0,25,0.00,,,-99.99,,2013-06-11 01:42:00,
2013-06-10 19:12:00,85.0,47.0,29.24,SW,220,6.0,-999.0,27,0.00,,,-99.99,,2013-06-11 02:12:00,
2013-06-10 19:22:00,85.0,47.0,29.24,SW,220,6.0,-999.0,27,0.00,,,-99.99,,2013-06-11 02:22:00,
2013-06-10 19:32:00,85.0,47.0,29.24,SW,220,6.0,-999.0,27,0.00,,,-99.99,,2013-06-11 02:32:00,
2013-06-10 19:42:00,85.0,47.0,29.24,SW,220,6.0,-999.0,27,0.00,,,-99.99,,2013-06-11 02:42:00,
2013-06-10 20:12:00,81.0,47.0,29.25,SW,232,3.0,-999.0,30,0.00,,,0.00,,2013-06-11 03:12:00,
2013-06-10 20:22:00,81.0,47.0,29.25,SW,232,3.0,-999.0,30,0.00,,,0.00,,2013-06-11 03:22:00,
2013-06-10 20:32:00,81.0,47.0,29.25,SW,232,3.0,-999.0,30,0.00,,,0.00,,2013-06-11 03:32:00,
2013-06-10 20:42:00,81.0,47.0,29.25,SW,232,3.0,-999.0,30,0.00,,,0.00,,2013-06-11 03:42:00,
2013-06-10 21:12:00,79.0,45.0,29.26,SSW,192,3.0,-999.0,31,0.00,,,0.00,,2013-06-11 04:12:00,
2013-06-10 21:23:00,79.0,45.0,29.26,SSW,192,3.0,-999.0,31,0.00,,,0.00,,2013-06-11 04:23:00,
2013-06-10 21:33:00,79.0,45.0,29.26,SSW,192,3.0,-999.0,31,0.00,,,0.00,,2013-06-11 04:33:00,
2013-06-10 21:42:00,79.0,45.0,29.26,SSW,192,3.0,-999.0,31,0.00,,,0.00,,2013-06-11 04:42:00,
2013-06-10 22:12:00,77.0,47.0,29.28,SSW,208,2.0,-999.0,34,0.00,,,-99.99,,2013-06-11 05:12:00,
2013-06-10 22:22:00,77.0,47.0,29.28,SSW,208,2.0,-999.0,34,0.00,,,-99.99,,2013-06-11 05:22:00,
2013-06-10 22:32:00,77.0,47.0,29.28,SSW,208,2.0,-999.0,34,0.00,,,-99.99,,2013-06-11 05:32:00,
2013-06-10 22:42:00,77.0,47.0,29.28,SSW,208,2.0,-999.0,34,0.00,,,-99.99,,2013-06-11 05:42:00,
2013-06-10 23:12:00,75.0,48.0,29.30,NNE,14,2.0,-999.0,39,0.00,,,0.00,,2013-06-11 06:12:00,
2013-06-10 23:22:00,75.0,48.0,29.30,NNE,14,2.0,-999.0,39,0.00,,,0.00,,2013-06-11 06:22:00,
2013-06-10 23:32:00,75.0,48.0,29.30,NNE,14,2.0,-999.0,39,0.00,,,0.00,,2013-06-11 06:32:00,
2013-06-10 23:42:00,75.0,48.0,29.30,NNE,14,2.0,-999.0,39,0.00,,,0.00,,2013-06-11 06:42:00,